Weather History for KFMY - September, 2012

Change the Weather History Date:

Wednesday, September 26, 2012

  Actual Average Record
Temperature  
Mean Temperature 81 °F 82 °F  
Max Temperature 88 °F 90 °F 95 °F (1980)
Min Temperature 74 °F 74 °F 64 °F (1916)
Degree Days  
Heating Degree Days 0 0  
Month to date heating degree days 0 0  
Since 1 July heating degree days 0 0  
Cooling Degree Days 16 17  
Month to date cooling degree days 453 458  
Year to date cooling degree days 3602 3182  
Growing Degree Days 32 (Base 50)    
Moisture  
Dew Point 71 °F    
Average Humidity 72    
Maximum Humidity 87    
Minimum Humidity 51    
Precipitation  
Precipitation T in 0.21 in 2.28 in (1977)
Month to date precipitation 5.98 7.49  
Year to date precipitation 41.78 48.56  
Sea Level Pressure  
Sea Level Pressure 30.07 in    
Wind  
Wind Speed 5 mph (East)    
Max Wind Speed 10 mph    
Max Gust Speed 15 mph    
Visibility 10 miles    
Events      
T = Trace of Precipitation, MM = Missing Value Source: NWS Daily Summary

Daily Weather History Graph

Daily Weather History Graph

Search for Another Location

Airport or City:

Trip Planner

Search our weather history database for the weather conditions in past years. The results will help you decide how hot, cold, wet, or windy it might be!

Date:

Astronomy

Sep. 26, 2012 Rise Set
Actual Time 7:17 AM EDT 7:18 PM EDT
Civil Twilight 6:54 AM EDT 7:41 PM EDT
Nautical Twilight 6:27 AM EDT 8:08 PM EDT
Astronomical Twilight 6:00 AM EDT 8:35 PM EDT
Moon 5:04 PM EDT (9/26) 3:59 AM EDT (9/26)
Length of Visible Light 12h 47m
Length of Day
12h 00m
Waxing Gibbous, 88% of the Moon is Illuminated
Sep 26
Waxing Gibbous
Sep 29
Full
Oct 8
Last Quarter
Oct 15
New
Oct 21
First Quarter

Hourly Weather History & Observations

Time (EDT) Temp. Heat Index Dew Point Humidity Pressure Visibility Wind Dir Wind Speed Gust Speed Precip Events Conditions
1:53 AM 77.0 °F - - N/A% 30.07 in 10.0 mi Calm Calm - N/A   Clear
2:53 AM 77.0 °F - - N/A% 30.05 in 10.0 mi ENE 3.5 mph - N/A   Clear
4:53 AM 75.0 °F - - N/A% 30.02 in 10.0 mi East 3.5 mph - N/A   Clear
5:53 AM 75.0 °F - - N/A% 30.03 in 10.0 mi East 4.6 mph - N/A   Clear
6:53 AM 75.0 °F - 68.0 °F 79% 30.04 in 10.0 mi East 5.8 mph - N/A   Clear
7:53 AM 75.0 °F - 70.0 °F 84% 30.06 in 10.0 mi East 3.5 mph - N/A   Clear
8:53 AM 75.9 °F - 69.1 °F 79% 30.09 in 10.0 mi ENE 8.1 mph - 0.00 in   Clear
9:53 AM 78.1 °F - 72.0 °F 81% 30.09 in 10.0 mi East 4.6 mph - N/A   Clear
10:53 AM 80.1 °F 84.2 °F 73.0 °F 79% 30.10 in 10.0 mi ENE 5.8 mph - N/A   Clear
11:53 AM 82.0 °F 87.9 °F 73.9 °F 76% 30.10 in 10.0 mi Variable 3.5 mph - N/A   Clear
12:53 PM 84.0 °F 91.2 °F 73.9 °F 72% 30.09 in 10.0 mi ESE 5.8 mph - N/A   Clear
1:53 PM 84.9 °F 92.1 °F 73.9 °F 69% 30.08 in 10.0 mi ESE 6.9 mph - 0.00 in   Partly Cloudy
2:53 PM 87.1 °F 94.5 °F 73.0 °F 63% 30.06 in 10.0 mi East 6.9 mph - N/A   Partly Cloudy
3:53 PM 88.0 °F 93.8 °F 71.1 °F 57% 30.04 in 10.0 mi South 4.6 mph - N/A   Mostly Cloudy
4:53 PM 87.1 °F 92.0 °F 70.0 °F 57% 30.04 in 10.0 mi SE 8.1 mph - N/A   Partly Cloudy
5:53 PM 87.1 °F 92.0 °F 70.0 °F 57% 30.04 in 10.0 mi ENE 5.8 mph - N/A   Clear
6:53 PM 86.0 °F 88.8 °F 66.9 °F 53% 30.06 in 10.0 mi ENE 5.8 mph - N/A   Clear
7:53 PM 84.0 °F 89.6 °F 72.0 °F 67% 30.08 in 10.0 mi ENE 3.5 mph - N/A   Partly Cloudy
8:53 PM 80.1 °F 83.8 °F 72.0 °F 76% 30.08 in 10.0 mi ENE 8.1 mph - N/A   Clear
9:53 PM 78.1 °F - 71.1 °F 79% 30.09 in 10.0 mi NE 6.9 mph - N/A   Clear
10:53 PM 77.0 °F - 71.1 °F 82% 30.10 in 10.0 mi ENE 5.8 mph - N/A   Clear
11:53 PM 75.9 °F - 72.0 °F 87% 30.09 in 10.0 mi ENE 3.5 mph - N/A   Clear